| time (UTC) | temp F | wind direction | speed MPH | gust MPH | rain 1hr in | rain 24hr in | rain mn in | humidity % | barometer mb |
| 20260905083408 | 55 | 279 | 9.0 | 20.0 | 0.00 | 0.00 | 0.00 | 85 | 1011.8 |
| 20260905082906 | 55 | 277 | 10.0 | 23.0 | 0.00 | 0.00 | 0.00 | 84 | 1011.9 |
| 20260905082407 | 55 | 310 | 11.0 | 26.0 | 0.00 | 0.00 | 0.00 | 84 | 1012.0 |
| 20260905081908 | 55 | 320 | 11.0 | 23.0 | 0.00 | 0.00 | 0.00 | 84 | 1012.0 |
| 20260905081407 | 56 | 312 | 10.0 | 25.0 | 0.00 | 0.00 | 0.00 | 84 | 1011.9 |
| 20260905080907 | 56 | 318 | 10.0 | 26.0 | 0.00 | 0.00 | 0.00 | 83 | 1012.0 |
| 20260905080406 | 55 | 322 | 12.0 | 21.0 | 0.00 | 0.00 | 0.00 | 83 | 1012.0 |
| 20260905075906 | 55 | 309 | 9.0 | 22.0 | 0.00 | 0.00 | 0.00 | 83 | 1012.0 |
| 20260905075407 | 55 | 323 | 11.0 | 25.0 | 0.00 | 0.00 | 0.00 | 84 | 1012.0 |
| 20260905074906 | 55 | 325 | 10.0 | 22.0 | 0.00 | 0.00 | 0.00 | 84 | 1012.0 |
| 20260905074406 | 56 | 334 | 10.0 | 21.0 | 0.00 | 0.00 | 0.00 | 85 | 1012.1 |
| 20260905073906 | 55 | 327 | 12.0 | 24.0 | 0.00 | 0.00 | 0.00 | 85 | 1012.0 |
| 20260905073406 | 55 | 349 | 7.0 | 21.0 | 0.00 | 0.00 | 0.00 | 85 | 1012.0 |
| 20260905072906 | 55 | 335 | 9.0 | 20.0 | 0.00 | 0.00 | 0.00 | 85 | 1011.9 |
| 20260905072406 | 55 | 339 | 7.0 | 22.0 | 0.00 | 0.00 | 0.00 | 85 | 1011.9 |
| 20260905071907 | 55 | 331 | 9.0 | 21.0 | 0.00 | 0.00 | 0.00 | 85 | 1011.9 |
| 20260905071406 | 55 | 311 | 9.0 | 21.0 | 0.00 | 0.00 | 0.00 | 86 | 1011.9 |
| 20260905070906 | 55 | 252 | 8.0 | 20.0 | 0.00 | 0.00 | 0.00 | 86 | 1011.9 |
| 20260905070406 | 55 | 228 | 9.0 | 22.0 | 0.00 | 0.00 | 0.00 | 86 | 1011.8 |
| 20260905065907 | 55 | 231 | 9.0 | 24.0 | 0.00 | 0.00 | 0.00 | 86 | 1011.8 |
| 20260905065407 | 55 | 319 | 6.0 | 26.0 | 0.00 | 0.00 | 0.00 | 86 | 1011.8 |
| 20260905064906 | 55 | 332 | 6.0 | 20.0 | 0.00 | 0.00 | 0.00 | 86 | 1011.8 |
| 20260905064406 | 55 | 320 | 6.0 | 21.0 | 0.00 | 0.00 | 0.00 | 86 | 1011.8 |
| 20260905063906 | 55 | 344 | 11.0 | 26.0 | 0.00 | 0.00 | 0.00 | 86 | 1011.8 |
| 20260905062906 | 55 | 306 | 8.0 | 20.0 | 0.00 | 0.00 | 0.00 | 86 | 1011.7 |
| 20260905062407 | 55 | 344 | 7.0 | 24.0 | 0.00 | 0.00 | 0.00 | 86 | 1011.6 |
| 20260905061906 | 55 | 299 | 9.0 | 20.0 | 0.00 | 0.00 | 0.00 | 86 | 1011.4 |
| 20260905061406 | 55 | 228 | 10.0 | 24.0 | 0.00 | 0.00 | 0.00 | 86 | 1011.3 |
| 20260905060907 | 55 | 320 | 11.0 | 23.0 | 0.00 | 0.00 | 0.00 | 85 | 1011.4 |
| 20260905060406 | 55 | 343 | 12.0 | 28.0 | 0.00 | 0.00 | 0.00 | 85 | 1011.3 |
| 20260905055906 | 55 | 0 | 13.0 | 25.0 | 0.00 | 0.00 | 0.00 | 84 | 1011.3 |
| 20260905055406 | 56 | 316 | 14.0 | 25.0 | 0.00 | 0.00 | 0.00 | 84 | 1011.2 |
| 20260905054407 | 56 | 343 | 15.0 | 30.0 | 0.00 | 0.00 | 0.00 | 83 | 1011.3 |
| 20260905053906 | 56 | 343 | 11.0 | 26.0 | 0.00 | 0.00 | 0.00 | 82 | 1011.2 |
| 20260905053406 | 56 | 254 | 11.0 | 29.0 | 0.00 | 0.00 | 0.00 | 81 | 1011.1 |
| 20260905052906 | 56 | 330 | 13.0 | 29.0 | 0.00 | 0.00 | 0.00 | 80 | 1011.2 |
| 20260905052406 | 56 | 345 | 14.0 | 33.0 | 0.00 | 0.00 | 0.00 | 80 | 1011.3 |
| 20260905051407 | 56 | 340 | 13.0 | 26.0 | 0.00 | 0.00 | 0.00 | 81 | 1011.4 |
| 20260905050907 | 56 | 337 | 14.0 | 26.0 | 0.00 | 0.00 | 0.00 | 81 | 1011.7 |
| 20260905050406 | 56 | 340 | 14.0 | 25.0 | 0.00 | 0.00 | 0.00 | 82 | 1011.6 |
| 20260905045906 | 57 | 348 | 11.0 | 26.0 | 0.00 | 0.00 | 0.00 | 83 | 1011.7 |
| 20260905045407 | 57 | 326 | 14.0 | 22.0 | 0.00 | 0.00 | 0.00 | 82 | 1011.9 |
| 20260905044906 | 57 | 334 | 12.0 | 26.0 | 0.00 | 0.00 | 0.00 | 82 | 1012.0 |
| 20260905043406 | 57 | 323 | 12.0 | 26.0 | 0.00 | 0.00 | 0.00 | 82 | 1012.1 |
| 20260905042906 | 57 | 347 | 13.0 | 20.0 | 0.00 | 0.00 | 0.00 | 82 | 1012.1 |
| 20260905042407 | 57 | 346 | 13.0 | 25.0 | 0.00 | 0.00 | 0.00 | 82 | 1012.1 |
| 20260905041907 | 57 | 335 | 9.0 | 22.0 | 0.00 | 0.00 | 0.00 | 82 | 1012.1 |
| 20260905041407 | 57 | 351 | 13.0 | 28.0 | 0.00 | 0.00 | 0.00 | 82 | 1012.1 |
| 20260905035906 | 57 | 340 | 12.0 | 30.0 | 0.00 | 0.00 | 0.00 | 81 | 1012.3 |
| 20260905035407 | 57 | 334 | 12.0 | 26.0 | 0.00 | 0.00 | 0.00 | 82 | 1012.3 |
| 20260905034907 | 57 | 344 | 12.0 | 23.0 | 0.00 | 0.00 | 0.00 | 80 | 1012.4 |
| 20260905034406 | 57 | 348 | 16.0 | 24.0 | 0.00 | 0.00 | 0.00 | 79 | 1012.4 |
| 20260905033406 | 58 | 346 | 14.0 | 35.0 | 0.00 | 0.00 | 0.00 | 80 | 1012.7 |
| 20260905032906 | 58 | 329 | 9.0 | 24.0 | 0.00 | 0.00 | 0.00 | 80 | 1012.9 |
| 20260905032406 | 58 | 342 | 9.0 | 22.0 | 0.00 | 0.00 | 0.00 | 80 | 1012.9 |
| 20260905031907 | 57 | 336 | 7.0 | 20.0 | 0.00 | 0.00 | 0.00 | 80 | 1012.9 |
| 20260905031406 | 57 | 352 | 9.0 | 18.0 | 0.00 | 0.00 | 0.00 | 80 | 1012.9 |
| 20260905030906 | 58 | 337 | 12.0 | 22.0 | 0.00 | 0.00 | 0.00 | 79 | 1012.9 |
| 20260905030406 | 58 | 323 | 13.0 | 22.0 | 0.00 | 0.00 | 0.00 | 78 | 1012.9 |
| 20260905025906 | 58 | 325 | 9.0 | 22.0 | 0.00 | 0.00 | 0.00 | 79 | 1012.9 |
| 20260905025406 | 58 | 325 | 12.0 | 20.0 | 0.00 | 0.00 | 0.00 | 78 | 1013.0 |
| 20260905024907 | 58 | 308 | 10.0 | 21.0 | 0.00 | 0.00 | 0.00 | 78 | 1012.9 |
| 20260905023907 | 58 | 326 | 12.0 | 26.0 | 0.00 | 0.00 | 0.00 | 79 | 1013.2 |
| 20260905023406 | 58 | 311 | 11.0 | 22.0 | 0.00 | 0.00 | 0.00 | 79 | 1013.2 |
| 20260905022906 | 58 | 325 | 10.0 | 23.0 | 0.00 | 0.00 | 0.00 | 80 | 1013.3 |
| 20260905022406 | 57 | 332 | 9.0 | 20.0 | 0.00 | 0.00 | 0.00 | 81 | 1013.3 |
| 20260905021906 | 57 | 303 | 7.0 | 22.0 | 0.00 | 0.00 | 0.00 | 82 | 1013.3 |
| 20260905021406 | 56 | 319 | 11.0 | 24.0 | 0.00 | 0.00 | 0.00 | 81 | 1013.3 |
| 20260905020906 | 56 | 313 | 11.0 | 20.0 | 0.00 | 0.00 | 0.00 | 82 | 1013.3 |
| 20260905020406 | 56 | 334 | 9.0 | 20.0 | 0.00 | 0.00 | 0.00 | 83 | 1013.4 |
| 20260905015906 | 55 | 338 | 7.0 | 18.0 | 0.00 | 0.00 | 0.00 | 83 | 1013.4 |
| 20260905015406 | 56 | 344 | 8.0 | 23.0 | 0.00 | 0.00 | 0.00 | 84 | 1013.5 |
| 20260905014906 | 56 | 311 | 7.0 | 18.0 | 0.00 | 0.00 | 0.00 | 85 | 1013.6 |
| 20260905014406 | 55 | 324 | 9.0 | 21.0 | 0.00 | 0.00 | 0.00 | 85 | 1013.8 |
| 20260905013406 | 55 | 297 | 8.0 | 24.0 | 0.00 | 0.00 | 0.00 | 83 | 1014.0 |
| 20260905012906 | 55 | 341 | 10.0 | 26.0 | 0.00 | 0.00 | 0.00 | 83 | 1014.2 |
| 20260905011406 | 55 | 329 | 6.0 | 26.0 | 0.00 | 0.00 | 0.00 | 84 | 1014.2 |
| 20260905010907 | 55 | 292 | 10.0 | 20.0 | 0.00 | 0.00 | 0.00 | 86 | 1014.3 |
| 20260905010407 | 55 | 319 | 5.0 | 16.0 | 0.00 | 0.00 | 0.00 | 86 | 1014.4 |
| 20260905005906 | 55 | 314 | 2.0 | 10.0 | 0.00 | 0.00 | 0.00 | 87 | 1014.5 |
| 20260905005406 | 54 | 301 | 3.0 | 12.0 | 0.00 | 0.00 | 0.00 | 87 | 1014.6 |
| 20260905004906 | 54 | 322 | 6.0 | 16.0 | 0.00 | 0.00 | 0.00 | 87 | 1014.7 |
| 20260905004407 | 54 | 267 | 6.0 | 16.0 | 0.00 | 0.00 | 0.00 | 87 | 1014.8 |
| 20260905003907 | 54 | 314 | 5.0 | 14.0 | 0.00 | 0.00 | 0.00 | 87 | 1014.9 |
| 20260905003407 | 54 | 256 | 6.0 | 15.0 | 0.00 | 0.00 | 0.00 | 87 | 1015.0 |
| 20260905002907 | 54 | 251 | 6.0 | 16.0 | 0.00 | 0.00 | 0.00 | 87 | 1015.1 |
| 20260905002406 | 54 | 310 | 5.0 | 17.0 | 0.00 | 0.00 | 0.00 | 87 | 1015.4 |
| 20260905001906 | 54 | 242 | 8.0 | 20.0 | 0.00 | 0.00 | 0.00 | 87 | 1015.4 |
| 20260905001406 | 54 | 325 | 7.0 | 21.0 | 0.00 | 0.00 | 0.00 | 86 | 1015.5 |
| 20260905000907 | 54 | 346 | 12.0 | 22.0 | 0.00 | 0.00 | 0.00 | 85 | 1015.4 |
| 20260905000407 | 55 | 296 | 5.0 | 12.0 | 0.00 | 0.00 | 0.00 | 85 | 1015.3 |
| 20260904235407 | 55 | 346 | 8.0 | 16.0 | 0.00 | 0.00 | 0.00 | 84 | 1015.5 |
| 20260904234906 | 55 | 345 | 8.0 | 15.0 | 0.00 | 0.00 | 0.00 | 84 | 1015.5 |
| 20260904234406 | 55 | 349 | 9.0 | 16.0 | 0.00 | 0.00 | 0.00 | 85 | 1015.4 |
| 20260904233906 | 55 | 343 | 6.0 | 14.0 | 0.00 | 0.00 | 0.00 | 86 | 1015.4 |
| 20260904233406 | 55 | 343 | 6.0 | 15.0 | 0.00 | 0.00 | 0.00 | 86 | 1015.5 |
| 20260904232906 | 55 | 341 | 7.0 | 14.0 | 0.00 | 0.00 | 0.00 | 87 | 1015.6 |
| 20260904232406 | 54 | 324 | 6.0 | 13.0 | 0.00 | 0.00 | 0.00 | 87 | 1015.6 |
| 20260904231906 | 53 | 303 | 7.0 | 15.0 | 0.00 | 0.00 | 0.00 | 87 | 1015.8 |
| 20260904231406 | 53 | 347 | 6.0 | 13.0 | 0.00 | 0.00 | 0.00 | 87 | 1015.9 |
| 20260904230906 | 53 | 315 | 4.0 | 16.0 | 0.00 | 0.00 | 0.00 | 87 | 1015.8 |
| 20260904230406 | 53 | 341 | 3.0 | 12.0 | 0.00 | 0.00 | 0.00 | 87 | 1015.9 |
| 20260904225906 | 52 | 321 | 5.0 | 13.0 | 0.00 | 0.00 | 0.00 | 87 | 1015.9 |
| 20260904225406 | 52 | 269 | 5.0 | 15.0 | 0.00 | 0.00 | 0.00 | 87 | 1015.9 |
| 20260904224906 | 52 | 211 | 5.0 | 13.0 | 0.00 | 0.00 | 0.00 | 86 | 1016.0 |
| 20260904224407 | 53 | 237 | 6.0 | 15.0 | 0.00 | 0.00 | 0.00 | 86 | 1016.1 |
| 20260904223907 | 53 | 245 | 3.0 | 9.0 | 0.00 | 0.00 | 0.00 | 85 | 1016.1 |
| 20260904222906 | 54 | 234 | 5.0 | 14.0 | 0.00 | 0.00 | 0.00 | 83 | 1016.0 |
| 20260904221906 | 56 | 346 | 8.0 | 16.0 | 0.00 | 0.00 | 0.00 | 78 | 1015.8 |
| 20260904221407 | 57 | 346 | 6.0 | 17.0 | 0.00 | 0.00 | 0.00 | 78 | 1015.7 |
| 20260904220906 | 57 | 315 | 6.0 | 14.0 | 0.00 | 0.00 | 0.00 | 79 | 1015.6 |
| 20260904220406 | 57 | 328 | 6.0 | 16.0 | 0.00 | 0.00 | 0.00 | 80 | 1015.7 |
| 20260904215906 | 57 | 353 | 8.0 | 15.0 | 0.00 | 0.00 | 0.00 | 80 | 1015.6 |
| 20260904215407 | 57 | 325 | 7.0 | 15.0 | 0.00 | 0.00 | 0.00 | 79 | 1015.7 |
| 20260904214406 | 56 | 343 | 8.0 | 14.0 | 0.00 | 0.00 | 0.00 | 79 | 1015.7 |
| 20260904213906 | 56 | 330 | 5.0 | 12.0 | 0.00 | 0.00 | 0.00 | 80 | 1015.6 |
| 20260904213406 | 55 | 321 | 5.0 | 15.0 | 0.00 | 0.00 | 0.00 | 80 | 1015.7 |
| 20260904212406 | 55 | 315 | 3.0 | 10.0 | 0.00 | 0.00 | 0.00 | 83 | 1015.7 |
| 20260904211907 | 54 | 258 | 3.0 | 10.0 | 0.00 | 0.00 | 0.00 | 83 | 1015.8 |
| 20260904211406 | 54 | 313 | 4.0 | 12.0 | 0.00 | 0.00 | 0.00 | 84 | 1015.9 |
| 20260904210906 | 53 | 237 | 1.0 | 5.0 | 0.00 | 0.00 | 0.00 | 84 | 1015.9 |
| 20260904210406 | 53 | 221 | 2.0 | 7.0 | 0.00 | 0.00 | 0.00 | 84 | 1015.9 |
| 20260904205906 | 53 | 209 | 2.0 | 6.0 | 0.00 | 0.00 | 0.00 | 83 | 1016.0 |
| 20260904205406 | 53 | 209 | 2.0 | 7.0 | 0.00 | 0.00 | 0.00 | 82 | 1016.0 |
| 20260904204906 | 53 | 279 | 3.0 | 10.0 | 0.00 | 0.00 | 0.00 | 82 | 1016.0 |
| 20260904204405 | 54 | 201 | 2.0 | 9.0 | 0.00 | 0.00 | 0.00 | 81 | 1015.9 |
| 20260904203906 | 54 | 151 | 3.0 | 7.0 | 0.00 | 0.00 | 0.00 | 81 | 1015.9 |
| 20260904202906 | 53 | 204 | 3.0 | 7.0 | 0.00 | 0.00 | 0.00 | 81 | 1015.9 |
| 20260904202406 | 53 | 217 | 2.0 | 6.0 | 0.00 | 0.00 | 0.00 | 81 | 1015.9 |
| 20260904201406 | 53 | 228 | 1.0 | 6.0 | 0.00 | 0.00 | 0.00 | 81 | 1015.9 |
| 20260904200906 | 53 | 278 | 2.0 | 6.0 | 0.00 | 0.00 | 0.00 | 81 | 1015.8 |
| 20260904200406 | 52 | 253 | 2.0 | 5.0 | 0.00 | 0.00 | 0.00 | 81 | 1015.8 |
| 20260904195906 | 52 | 227 | 2.0 | 3.0 | 0.00 | 0.00 | 0.00 | 81 | 1015.7 |
| 20260904195406 | 52 | 231 | 1.0 | 3.0 | 0.00 | 0.00 | 0.00 | 81 | 1015.7 |
| 20260904194405 | 52 | 299 | 1.0 | 5.0 | 0.00 | 0.00 | 0.00 | 81 | 1015.5 |
| 20260904193906 | 52 | 270 | 1.0 | 3.0 | 0.00 | 0.00 | 0.00 | 81 | 1015.4 |
| 20260904193406 | 52 | 274 | 2.0 | 7.0 | 0.00 | 0.00 | 0.00 | 81 | 1015.4 |
| 20260904192906 | 51 | 343 | 3.0 | 6.0 | 0.00 | 0.00 | 0.00 | 81 | 1015.3 |
| 20260904191906 | 51 | 353 | 2.0 | 7.0 | 0.00 | 0.00 | 0.00 | 81 | 1015.3 |
| 20260904191406 | 51 | 327 | 3.0 | 5.0 | 0.00 | 0.00 | 0.00 | 81 | 1015.0 |
| 20260904190906 | 51 | 320 | 3.0 | 6.0 | 0.00 | 0.00 | 0.00 | 81 | 1014.9 |
| 20260904190406 | 50 | 249 | 2.0 | 5.0 | 0.00 | 0.00 | 0.00 | 81 | 1014.9 |
| 20260904185905 | 50 | 241 | 1.0 | 3.0 | 0.00 | 0.00 | 0.00 | 81 | 1014.9 |
| 20260904185406 | 50 | 332 | 2.0 | 5.0 | 0.00 | 0.00 | 0.00 | 81 | 1014.9 |
| 20260904184906 | 50 | 234 | 1.0 | 7.0 | 0.00 | 0.00 | 0.00 | 80 | 1014.9 |
| 20260904184406 | 50 | 254 | 3.0 | 8.0 | 0.00 | 0.00 | 0.00 | 80 | 1014.9 |
| 20260904183907 | 50 | 243 | 2.0 | 5.0 | 0.00 | 0.00 | 0.00 | 80 | 1014.8 |
| 20260904183406 | 50 | 207 | 2.0 | 5.0 | 0.00 | 0.00 | 0.00 | 80 | 1014.8 |
| 20260904182906 | 50 | 207 | 2.0 | 5.0 | 0.00 | 0.00 | 0.00 | 79 | 1014.7 |
| 20260904182406 | 50 | 276 | 1.0 | 3.0 | 0.00 | 0.00 | 0.00 | 79 | 1014.8 |
| 20260904181905 | 50 | 218 | 2.0 | 5.0 | 0.00 | 0.00 | 0.00 | 79 | 1014.8 |
| 20260904180906 | 51 | 243 | 2.0 | 3.0 | 0.00 | 0.00 | 0.00 | 79 | 1014.7 |
| 20260904180406 | 51 | 228 | 3.0 | 9.0 | 0.00 | 0.00 | 0.00 | 79 | 1014.8 |
| 20260904175406 | 51 | 324 | 2.0 | 5.0 | 0.00 | 0.00 | 0.00 | 78 | 1014.8 |
| 20260904174906 | 51 | 218 | 2.0 | 6.0 | 0.00 | 0.00 | 0.00 | 78 | 1014.8 |
| 20260904174406 | 51 | 239 | 2.0 | 6.0 | 0.00 | 0.00 | 0.00 | 78 | 1014.7 |
| 20260904173906 | 51 | 214 | 2.0 | 7.0 | 0.00 | 0.00 | 0.00 | 78 | 1014.7 |
| 20260904173406 | 51 | 218 | 2.0 | 7.0 | 0.00 | 0.00 | 0.00 | 77 | 1014.7 |
| 20260904172906 | 51 | 218 | 2.0 | 7.0 | 0.00 | 0.00 | 0.00 | 77 | 1014.6 |
| 20260904172406 | 51 | 208 | 4.0 | 8.0 | 0.00 | 0.00 | 0.00 | 77 | 1014.6 |
| 20260904171906 | 51 | 200 | 4.0 | 14.0 | 0.00 | 0.00 | 0.00 | 77 | 1014.5 |
| 20260904171406 | 51 | 207 | 5.0 | 12.0 | 0.00 | 0.00 | 0.00 | 77 | 1014.5 |
| 20260904170906 | 51 | 193 | 4.0 | 12.0 | 0.00 | 0.00 | 0.00 | 77 | 1014.4 |
| 20260904170406 | 51 | 199 | 5.0 | 12.0 | 0.00 | 0.00 | 0.00 | 77 | 1014.3 |
| 20260904165906 | 51 | 200 | 6.0 | 12.0 | 0.00 | 0.00 | 0.00 | 78 | 1014.2 |
| 20260904165406 | 51 | 216 | 6.0 | 12.0 | 0.00 | 0.00 | 0.00 | 78 | 1014.2 |
| 20260904164406 | 51 | 239 | 3.0 | 12.0 | 0.00 | 0.00 | 0.00 | 78 | 1014.1 |
| 20260904163906 | 51 | 219 | 3.0 | 9.0 | 0.00 | 0.00 | 0.00 | 77 | 1014.0 |
| 20260904163407 | 51 | 216 | 4.0 | 12.0 | 0.00 | 0.00 | 0.00 | 77 | 1013.8 |
| 20260904162406 | 51 | 209 | 4.0 | 10.0 | 0.00 | 0.00 | 0.00 | 77 | 1013.6 |
| 20260904161906 | 52 | 205 | 5.0 | 12.0 | 0.00 | 0.00 | 0.00 | 76 | 1013.5 |
| 20260904161406 | 52 | 223 | 6.0 | 14.0 | 0.00 | 0.00 | 0.00 | 76 | 1013.4 |
| 20260904160906 | 52 | 196 | 5.0 | 12.0 | 0.00 | 0.00 | 0.00 | 76 | 1013.3 |
| 20260904160406 | 52 | 198 | 5.0 | 18.0 | 0.00 | 0.00 | 0.00 | 76 | 1013.2 |
| 20260904155906 | 52 | 219 | 7.0 | 16.0 | 0.00 | 0.00 | 0.00 | 76 | 1013.1 |
| 20260904155406 | 52 | 224 | 6.0 | 17.0 | 0.00 | 0.00 | 0.00 | 76 | 1013.0 |
| 20260904154906 | 52 | 200 | 6.0 | 18.0 | 0.00 | 0.00 | 0.00 | 77 | 1013.0 |
| 20260904154406 | 52 | 204 | 9.0 | 20.0 | 0.00 | 0.00 | 0.00 | 77 | 1013.0 |
| 20260904153906 | 52 | 236 | 3.0 | 12.0 | 0.00 | 0.00 | 0.00 | 77 | 1013.1 |
| 20260904153406 | 52 | 209 | 5.0 | 16.0 | 0.00 | 0.00 | 0.00 | 77 | 1013.1 |
| 20260904152905 | 53 | 230 | 4.0 | 13.0 | 0.00 | 0.00 | 0.00 | 77 | 1013.0 |
| 20260904152406 | 53 | 239 | 6.0 | 17.0 | 0.00 | 0.00 | 0.00 | 77 | 1012.9 |
| 20260904151906 | 53 | 202 | 8.0 | 16.0 | 0.00 | 0.00 | 0.00 | 77 | 1012.8 |
| 20260904151406 | 53 | 206 | 7.0 | 15.0 | 0.00 | 0.00 | 0.00 | 77 | 1012.8 |
| 20260904150906 | 53 | 193 | 8.0 | 17.0 | 0.00 | 0.00 | 0.00 | 77 | 1012.8 |
| 20260904150406 | 53 | 211 | 9.0 | 18.0 | 0.00 | 0.00 | 0.00 | 77 | 1012.8 |
| 20260904145906 | 53 | 217 | 7.0 | 20.0 | 0.00 | 0.00 | 0.00 | 77 | 1012.8 |
| 20260904145406 | 52 | 220 | 7.0 | 18.0 | 0.00 | 0.00 | 0.00 | 77 | 1012.8 |
| 20260904144905 | 53 | 196 | 6.0 | 14.0 | 0.00 | 0.00 | 0.00 | 76 | 1012.9 |
| 20260904144406 | 53 | 198 | 8.0 | 21.0 | 0.00 | 0.00 | 0.00 | 76 | 1012.9 |
| 20260904143906 | 53 | 203 | 7.0 | 17.0 | 0.00 | 0.00 | 0.00 | 76 | 1012.9 |
| 20260904143406 | 53 | 195 | 8.0 | 20.0 | 0.00 | 0.00 | 0.00 | 76 | 1012.9 |
| 20260904142906 | 53 | 218 | 6.0 | 14.0 | 0.00 | 0.00 | 0.00 | 76 | 1013.0 |
| 20260904142406 | 53 | 203 | 7.0 | 17.0 | 0.00 | 0.00 | 0.00 | 76 | 1013.0 |
| 20260904141906 | 54 | 199 | 7.0 | 18.0 | 0.00 | 0.00 | 0.00 | 76 | 1012.9 |
| 20260904140906 | 53 | 211 | 9.0 | 21.0 | 0.00 | 0.00 | 0.00 | 76 | 1012.8 |
| 20260904140406 | 53 | 211 | 7.0 | 18.0 | 0.00 | 0.00 | 0.00 | 76 | 1012.8 |
| 20260904135406 | 53 | 229 | 6.0 | 23.0 | 0.00 | 0.00 | 0.00 | 76 | 1012.7 |
| 20260904134906 | 54 | 206 | 7.0 | 21.0 | 0.00 | 0.00 | 0.00 | 76 | 1012.8 |
| 20260904134406 | 53 | 215 | 9.0 | 26.0 | 0.00 | 0.00 | 0.00 | 76 | 1012.7 |
| 20260904133907 | 53 | 208 | 6.0 | 15.0 | 0.00 | 0.00 | 0.00 | 75 | 1012.6 |
| 20260904132906 | 53 | 216 | 10.0 | 22.0 | 0.00 | 0.00 | 0.00 | 76 | 1012.3 |
| 20260904132407 | 53 | 203 | 9.0 | 20.0 | 0.00 | 0.00 | 0.00 | 77 | 1012.3 |
| 20260904131906 | 53 | 194 | 6.0 | 21.0 | 0.00 | 0.00 | 0.00 | 77 | 1012.3 |
| 20260904131406 | 53 | 215 | 6.0 | 26.0 | 0.00 | 0.00 | 0.00 | 77 | 1012.3 |
| 20260904130906 | 53 | 202 | 10.0 | 20.0 | 0.00 | 0.00 | 0.00 | 77 | 1012.2 |
| 20260904130406 | 53 | 231 | 7.0 | 18.0 | 0.00 | 0.00 | 0.00 | 76 | 1012.2 |
| 20260904125906 | 53 | 202 | 5.0 | 20.0 | 0.00 | 0.00 | 0.00 | 76 | 1011.9 |
| 20260904124906 | 53 | 191 | 8.0 | 18.0 | 0.00 | 0.00 | 0.00 | 76 | 1011.8 |
| 20260904124405 | 53 | 192 | 9.0 | 20.0 | 0.00 | 0.00 | 0.00 | 77 | 1011.7 |
| 20260904123906 | 53 | 216 | 10.0 | 25.0 | 0.00 | 0.00 | 0.00 | 77 | 1011.6 |
| 20260904123406 | 52 | 189 | 7.0 | 20.0 | 0.00 | 0.00 | 0.00 | 78 | 1011.5 |
| 20260904121906 | 52 | 203 | 9.0 | 16.0 | 0.00 | 0.00 | 0.00 | 79 | 1011.3 |
| 20260904121407 | 52 | 288 | 5.0 | 17.0 | 0.00 | 0.00 | 0.00 | 78 | 1011.3 |
| 20260904120906 | 52 | 234 | 7.0 | 18.0 | 0.00 | 0.00 | 0.00 | 78 | 1011.4 |
| 20260904115906 | 52 | 196 | 7.0 | 21.0 | 0.00 | 0.00 | 0.00 | 78 | 1011.3 |
| 20260904114906 | 53 | 240 | 6.0 | 20.0 | 0.00 | 0.00 | 0.00 | 77 | 1011.1 |
| 20260904114408 | 53 | 201 | 10.0 | 28.0 | 0.00 | 0.00 | 0.00 | 76 | 1011.1 |
| 20260904113906 | 53 | 202 | 9.0 | 28.0 | 0.00 | 0.00 | 0.00 | 76 | 1011.1 |
| 20260904113406 | 54 | 217 | 8.0 | 21.0 | 0.00 | 0.00 | 0.00 | 76 | 1011.1 |
| 20260904112907 | 53 | 222 | 8.0 | 16.0 | 0.00 | 0.00 | 0.00 | 76 | 1011.0 |
| 20260904112406 | 53 | 228 | 10.0 | 21.0 | 0.00 | 0.00 | 0.00 | 76 | 1010.9 |
| 20260904111906 | 53 | 199 | 8.0 | 21.0 | 0.00 | 0.00 | 0.00 | 76 | 1010.8 |
| 20260904110906 | 53 | 226 | 7.0 | 20.0 | 0.00 | 0.00 | 0.00 | 75 | 1010.9 |
| 20260904110406 | 53 | 220 | 7.0 | 18.0 | 0.00 | 0.00 | 0.00 | 75 | 1011.0 |
| 20260904105907 | 53 | 216 | 8.0 | 20.0 | 0.00 | 0.00 | 0.00 | 74 | 1010.9 |
| 20260904105407 | 53 | 206 | 7.0 | 20.0 | 0.00 | 0.00 | 0.00 | 74 | 1011.0 |
| 20260904104907 | 53 | 300 | 9.0 | 26.0 | 0.00 | 0.00 | 0.00 | 74 | 1010.8 |
| 20260904103906 | 53 | 216 | 5.0 | 13.0 | 0.00 | 0.00 | 0.00 | 75 | 1010.7 |
| 20260904103406 | 53 | 209 | 7.0 | 24.0 | 0.00 | 0.00 | 0.00 | 74 | 1010.5 |
| 20260904102906 | 53 | 218 | 10.0 | 22.0 | 0.00 | 0.00 | 0.00 | 75 | 1010.4 |
| 20260904102410 | 53 | 259 | 10.0 | 24.0 | 0.00 | 0.00 | 0.00 | 75 | 1010.2 |
| 20260904101906 | 53 | 256 | 9.0 | 20.0 | 0.00 | 0.00 | 0.00 | 76 | 1010.2 |
| 20260904100906 | 53 | 223 | 10.0 | 22.0 | 0.00 | 0.00 | 0.00 | 75 | 1010.3 |
| 20260904100407 | 53 | 225 | 10.0 | 28.0 | 0.00 | 0.00 | 0.00 | 75 | 1010.3 |
| 20260904095907 | 53 | 226 | 7.0 | 20.0 | 0.00 | 0.00 | 0.00 | 75 | 1010.2 |
| 20260904094906 | 53 | 194 | 6.0 | 14.0 | 0.00 | 0.00 | 0.00 | 74 | 1010.0 |
| 20260904094406 | 53 | 222 | 10.0 | 21.0 | 0.00 | 0.00 | 0.00 | 74 | 1010.0 |
| 20260904093906 | 53 | 215 | 9.0 | 20.0 | 0.00 | 0.00 | 0.00 | 75 | 1009.9 |
| 20260904093406 | 53 | 233 | 8.0 | 18.0 | 0.00 | 0.00 | 0.00 | 74 | 1009.9 |
| 20260904091906 | 53 | 264 | 8.0 | 21.0 | 0.00 | 0.00 | 0.00 | 76 | 1009.7 |
| 20260904091406 | 53 | 214 | 11.0 | 21.0 | 0.00 | 0.00 | 0.00 | 76 | 1009.4 |
| 20260904090906 | 53 | 237 | 9.0 | 20.0 | 0.00 | 0.00 | 0.00 | 76 | 1009.6 |
| 20260904090406 | 53 | 244 | 12.0 | 23.0 | 0.00 | 0.00 | 0.00 | 75 | 1009.6 |
| 20260904085906 | 53 | 229 | 7.0 | 22.0 | 0.00 | 0.00 | 0.00 | 76 | 1009.5 |
| 20260904085406 | 53 | 226 | 9.0 | 25.0 | 0.00 | 0.00 | 0.00 | 75 | 1009.5 |
| 20260904084906 | 53 | 228 | 12.0 | 25.0 | 0.00 | 0.00 | 0.00 | 75 | 1009.3 |
| 20260904084406 | 53 | 204 | 7.0 | 24.0 | 0.00 | 0.00 | 0.00 | 76 | 1009.2 |
| 20260904083906 | 53 | 224 | 13.0 | 25.0 | 0.00 | 0.00 | 0.00 | 75 | 1009.2 |